Regional Weather Roundup
Issued by NWS

Home | Current Version | Previous Version | Graphics & Text | Print | Product List | Glossary On
Versions: 1 2 3 4 5 6 7 8 9 10 11 12 13 14 15 16 17 18 19 20 21 22 23 24 25 26 27 28 29 30 31 32 33 34 35 36 37 38 39 40 41 42 43 44 45 46 47 48 49 50
000
ASUS43 KFSD 160302
RWRSD

WEATHER ROUNDUP FOR SOUTH DAKOTA
NATIONAL WEATHER SERVICE SIOUX FALLS SD
900 PM CST SUN JAN 15 2017

NOTE: "FAIR" INDICATES FEW OR NO CLOUDS BELOW 12,000 FEET WITH NO
SIGNIFICANT WEATHER AND/OR OBSTRUCTIONS TO VISIBILITY.


SDZ001>005-009-010-012>017-160400-
NORTHWEST AND NORTH CENTRAL SOUTH DAKOTA

CITY           SKY/WX    TMP DP  RH WIND       PRES   REMARKS
BUFFALO          N/A     19  12  74 W9        29.95F WCI   8
FAITH            N/A     10   7  87 NW5       30.03F WCI   2
MOBRIDGE       CLOUDY     3  -2  79 SE8       30.05S WCI -10
$$

SDZ012>016-024>037-041>051-057-063-072>074-160400-
SOUTHWEST AND SOUTH CENTRAL SOUTH DAKOTA

CITY           SKY/WX    TMP DP  RH WIND       PRES   REMARKS
RAPID CTY ARPT CLOUDY    25  11  55 W3        30.01S
PIERRE         CLOUDY     8   5  87 CALM      30.09S
CUSTER         CLOUDY    25  12  58 NW3       29.99S
ELLSWORTH AFB  CLOUDY    19   7  60 NW7       30.00S WCI   9
PHILIP         CLOUDY    11   9  92 NW5       30.07S WCI   3
PINE RIDGE     CLOUDY    15  14  95 E3        30.02S
SPEARFISH      FAIR      23   9  54 S7        30.02S WCI  15
WINNER         FAIR      24  19  81 CALM      30.07S
$$

SDZ004>011-016>023-039-040-160400-
NORTHEAST SOUTH DAKOTA

CITY           SKY/WX    TMP DP  RH WIND       PRES   REMARKS
ABERDEEN       CLOUDY     3  -1  83 S5        30.12S WCI  -6
WATERTOWN      CLOUDY    14  12  92 S6        30.10F FOG     WCI   5
BROOKINGS      CLOUDY    18  15  88 SE7       30.12S WCI   9
SISSETON         N/A     18  15  88 SW7       30.10F WCI   9
$$

SDZ017-020-022-023-036>040-048>070-160400-
SOUTHEAST SOUTH DAKOTA

CITY           SKY/WX    TMP DP  RH WIND       PRES   REMARKS
SIOUX FALLS    CLOUDY    27  18  69 S5        30.14F WCI  22
HURON          CLOUDY    13  11  92 CALM      30.11F
CHAMBERLAIN    CLOUDY    18  15  89 CALM      30.09F
MITCHELL       PTCLDY    23  19  85 S7        30.12F WCI  15
YANKTON        CLOUDY    28  19  69 SE5       30.13F WCI  23
$$

ABBREVIATIONS USED IN REMARKS
   TC - TEMPERATURE IN CELSIUS
  WCI - WIND CHILL INDEX
   HX - HEAT INDEX
  VSB - VISIBILITY





USA.gov is the U.S. government's official web portal to all federal, state and local government web resources and services.